TJS-10

Last updated on Mon Oct 20 2025 00:02:51 GMT+0000 (Coordinated Universal Time)

1 58204U 23169A 25292.70016105 .00000004 00000+0 00000+0 0 9992 2 58204 1.9205 83.3709 0004830 147.6100 222.5389 1.00274291 7130
UTC large
Height (km)
Speed (km/s)
/
Latitude / Longitude
Inclination (degrees)
Orbital Period (minutes)
Azimuth
Elevation
Range (km)
Doppler Factor

Next 0 passes for location: London (51.5072 / 0.1276)

Sorry there are no passes over London.